RYR537 EGSS-EKAH

Flight info

Callsign RYR537
Flight time N/A
Altitude 35000
Route CLN DCT EFMIH M604 GIVPO DCT LARGA DCT SOPTO P144 GOLUM N866 AMRAM DCT INTET T55 LUTUS
Aircraft B738/M-SDE2E3FGHIRWXY/LB1

Departure

Time 2026-05-04 07:05
Airport London Stansted Airport (EGSS)

Arrival

Time N/A
Airport Aarhus Airport (EKAH)
Time Latitude Longitude Altitude Speed Heading
2026-05-04 06:42 51.89453 0.25868 350 ft 0 kts 218°
2026-05-04 06:53 51.89460 0.25877 350 ft 2 kts 218°
2026-05-04 06:54 51.89473 0.25893 351 ft 2 kts 218°
2026-05-04 06:54 51.89482 0.25911 351 ft 2 kts 252°
2026-05-04 06:54 51.89484 0.25935 351 ft 2 kts 284°
2026-05-04 06:54 51.89479 0.25951 351 ft 0 kts 309°
2026-05-04 06:55 51.89474 0.25959 351 ft 1 kts 313°
2026-05-04 06:55 51.89474 0.25960 351 ft 0 kts 313°
2026-05-04 06:57 51.89462 0.25705 349 ft 17 kts 221°
2026-05-04 06:58 51.89356 0.25546 347 ft 22 kts 224°
2026-05-04 06:58 51.89244 0.25376 345 ft 22 kts 220°
2026-05-04 06:58 51.89230 0.25168 344 ft 20 kts 276°
2026-05-04 06:58 51.89166 0.24965 343 ft 23 kts 223°
2026-05-04 06:59 51.89042 0.24780 340 ft 24 kts 221°
2026-05-04 06:59 51.88918 0.24596 339 ft 25 kts 223°
2026-05-04 06:59 51.88779 0.24388 338 ft 28 kts 221°
2026-05-04 06:59 51.88635 0.24171 338 ft 28 kts 224°
2026-05-04 07:01 51.87614 0.22642 339 ft 30 kts 223°
2026-05-04 07:01 51.87463 0.22416 336 ft 19 kts 224°
2026-05-04 07:02 51.87397 0.22282 335 ft 15 kts 258°
2026-05-04 07:02 51.87420 0.22173 334 ft 10 kts 309°
2026-05-04 07:02 51.87433 0.22150 334 ft 0 kts 310°
2026-05-04 07:03 51.87434 0.22148 334 ft 2 kts 310°
2026-05-04 07:03 51.87476 0.22075 333 ft 13 kts 317°
2026-05-04 07:03 51.87546 0.22051 333 ft 3 kts 41°
2026-05-04 07:04 51.87547 0.22051 333 ft 0 kts 41°
2026-05-04 07:04 51.87551 0.22057 333 ft 6 kts 41°
2026-05-04 07:04 51.87758 0.22364 337 ft 74 kts 43°
2026-05-04 07:04 51.88293 0.23167 342 ft 133 kts 43°
2026-05-04 07:05 51.89083 0.24357 445 ft 169 kts 41°
2026-05-04 07:05 51.89927 0.25635 1098 ft 167 kts 41°
2026-05-04 07:05 51.90762 0.26892 1800 ft 166 kts 41°
2026-05-04 07:05 51.91491 0.28396 2187 ft 178 kts 65°
2026-05-04 07:06 51.91356 0.32654 2776 ft 213 kts 110°
2026-05-04 07:06 51.90708 0.34902 3081 ft 230 kts 115°
2026-05-04 07:06 51.89971 0.37319 3480 ft 244 kts 115°
2026-05-04 07:07 51.89219 0.39840 3847 ft 258 kts 114°
2026-05-04 07:08 51.83673 0.58756 3987 ft 267 kts 114°
2026-05-04 07:09 51.83044 0.61637 4348 ft 277 kts 99°
2026-05-04 07:09 51.82909 0.64718 4873 ft 273 kts 87°
2026-05-04 07:09 51.83012 0.67776 4979 ft 273 kts 85°
2026-05-04 07:09 51.83167 0.70805 4977 ft 270 kts 85°
2026-05-04 07:10 51.83321 0.73859 5058 ft 281 kts 85°
2026-05-04 07:10 51.83464 0.77002 5699 ft 282 kts 85°
2026-05-04 07:12 51.84257 0.98228 5970 ft 276 kts 86°
2026-05-04 07:12 51.84370 1.01347 5958 ft 276 kts 86°
2026-05-04 07:12 51.84482 1.04446 5959 ft 275 kts 86°
2026-05-04 07:12 51.84593 1.07513 5959 ft 275 kts 86°
2026-05-04 07:13 51.84721 1.10610 5960 ft 275 kts 83°
2026-05-04 07:13 51.85156 1.13614 5970 ft 275 kts 64°
2026-05-04 07:13 51.86295 1.16128 6104 ft 285 kts 39°
2026-05-04 07:14 51.92908 1.22974 8832 ft 290 kts 31°
2026-05-04 07:14 51.94603 1.24730 9484 ft 293 kts 31°
2026-05-04 07:15 51.96323 1.26502 10122 ft 297 kts 31°
2026-05-04 07:15 51.98118 1.28346 10487 ft 311 kts 31°
2026-05-04 07:15 51.99978 1.30262 10844 ft 326 kts 31°
2026-05-04 07:15 52.01911 1.32261 11327 ft 336 kts 31°
2026-05-04 07:16 52.03908 1.34326 11978 ft 341 kts 31°
2026-05-04 07:16 52.05911 1.36393 12650 ft 345 kts 31°
2026-05-04 07:16 52.07946 1.38497 13282 ft 350 kts 31°
2026-05-04 07:16 52.10009 1.40636 13957 ft 354 kts 31°
2026-05-04 07:17 52.12100 1.42806 14666 ft 357 kts 31°
2026-05-04 07:17 52.14194 1.44978 15298 ft 362 kts 31°
2026-05-04 07:17 52.16304 1.47171 16022 ft 364 kts 31°
2026-05-04 07:17 52.18433 1.49389 16640 ft 369 kts 31°
2026-05-04 07:18 52.20614 1.51663 17298 ft 372 kts 31°
2026-05-04 07:18 52.22782 1.53923 17960 ft 375 kts 31°
2026-05-04 07:18 52.24972 1.56204 18560 ft 379 kts 31°
2026-05-04 07:18 52.27208 1.58533 19148 ft 383 kts 31°
2026-05-04 07:19 52.29453 1.60881 19716 ft 387 kts 31°
2026-05-04 07:19 52.31726 1.63263 20308 ft 390 kts 31°
2026-05-04 07:19 52.34005 1.65654 20893 ft 393 kts 31°
2026-05-04 07:19 52.36311 1.68076 21389 ft 398 kts 31°
2026-05-04 07:20 52.38650 1.70538 21954 ft 400 kts 31°
2026-05-04 07:20 52.41018 1.73035 22436 ft 405 kts 31°
2026-05-04 07:20 52.43380 1.75530 23043 ft 406 kts 32°
2026-05-04 07:20 52.45759 1.78045 23474 ft 411 kts 31°
2026-05-04 07:22 52.62040 1.98306 26581 ft 436 kts 45°
2026-05-04 07:22 52.64183 2.01971 26734 ft 445 kts 45°
2026-05-04 07:23 52.66304 2.05660 27296 ft 444 kts 46°
2026-05-04 07:23 52.68417 2.09349 27507 ft 452 kts 46°
2026-05-04 07:23 52.70567 2.13101 28154 ft 448 kts 46°
2026-05-04 07:23 52.72704 2.16821 28387 ft 455 kts 46°
2026-05-04 07:24 52.74900 2.20638 28703 ft 459 kts 45°
2026-05-04 07:24 52.77076 2.24415 29133 ft 460 kts 45°
2026-05-04 07:24 52.79291 2.28257 29293 ft 468 kts 45°
2026-05-04 07:24 52.81544 2.32164 30090 ft 458 kts 45°
2026-05-04 07:25 52.83716 2.35934 30398 ft 462 kts 45°
2026-05-04 07:26 53.00067 2.62997 32595 ft 475 kts 34°
2026-05-04 07:27 53.02839 2.66029 32712 ft 479 kts 28°
2026-05-04 07:27 53.05761 2.68677 33058 ft 477 kts 25°
2026-05-04 07:27 53.08773 2.71130 33492 ft 474 kts 23°
2026-05-04 07:27 53.11768 2.73466 33818 ft 474 kts 23°
2026-05-04 07:28 53.14742 2.75767 34144 ft 473 kts 23°
2026-05-04 07:28 53.17699 2.78079 34454 ft 471 kts 24°
2026-05-04 07:28 53.20674 2.80446 34817 ft 469 kts 24°
2026-05-04 07:28 53.23600 2.82812 34951 ft 470 kts 24°
2026-05-04 07:29 53.29488 2.87657 34936 ft 471 kts 24°
2026-05-04 07:29 53.35350 2.92326 34936 ft 465 kts 23°
2026-05-04 07:30 53.41221 2.96880 35000 ft 470 kts 22°
2026-05-04 07:30 53.47161 3.01497 34932 ft 467 kts 23°
2026-05-04 07:31 53.53025 3.06096 34989 ft 469 kts 23°
2026-05-04 07:33 53.72274 3.21365 34972 ft 466 kts 23°
2026-05-04 07:33 53.78146 3.26061 35007 ft 467 kts 23°
2026-05-04 07:34 53.84020 3.30773 34968 ft 467 kts 23°
2026-05-04 07:34 53.89878 3.35488 34989 ft 466 kts 23°
2026-05-04 07:35 53.95755 3.40232 35000 ft 470 kts 23°
2026-05-04 07:35 54.01620 3.44982 34982 ft 467 kts 23°
2026-05-04 07:36 54.07440 3.49708 34995 ft 466 kts 23°
2026-05-04 07:38 54.30761 3.68794 34994 ft 464 kts 24°
2026-05-04 07:38 54.36587 3.73596 34992 ft 467 kts 24°
2026-05-04 07:39 54.42404 3.78415 34997 ft 464 kts 24°
2026-05-04 07:39 54.48192 3.83216 34999 ft 463 kts 24°
2026-05-04 07:40 54.53961 3.88016 34999 ft 465 kts 24°
2026-05-04 07:40 54.59753 3.92858 34997 ft 463 kts 24°
2026-05-04 07:41 54.65565 3.97732 34999 ft 464 kts 24°
2026-05-04 07:41 54.71317 4.02571 35000 ft 462 kts 24°
2026-05-04 07:42 54.77093 4.07443 34991 ft 464 kts 23°
2026-05-04 07:42 54.82835 4.12406 34996 ft 462 kts 26°
2026-05-04 07:43 54.88158 4.18818 35004 ft 468 kts 39°
2026-05-04 07:43 54.92758 4.26761 34999 ft 469 kts 45°
2026-05-04 07:44 54.97131 4.35163 34995 ft 470 kts 46°
2026-05-04 07:44 55.01467 4.43627 34973 ft 470 kts 46°
2026-05-04 07:45 55.05806 4.52081 34991 ft 472 kts 47°
2026-05-04 07:45 55.07643 4.56788 34978 ft 473 kts 61°
2026-05-04 07:45 55.09003 4.62025 34983 ft 475 kts 66°
2026-05-04 07:46 55.11279 4.72800 34981 ft 476 kts 71°
2026-05-04 07:46 55.13441 4.83722 34990 ft 476 kts 70°
2026-05-04 07:47 55.15639 4.94611 34971 ft 476 kts 70°
2026-05-04 07:49 55.24707 5.38165 34966 ft 478 kts 69°
2026-05-04 07:49 55.26967 5.49044 34964 ft 478 kts 69°
2026-05-04 07:50 55.29221 5.59958 34962 ft 479 kts 69°
2026-05-04 07:50 55.31466 5.70881 34964 ft 478 kts 70°
2026-05-04 07:51 55.33711 5.81879 34961 ft 479 kts 70°
2026-05-04 07:51 55.35943 5.92870 34959 ft 479 kts 70°
2026-05-04 07:52 55.38161 6.03852 34954 ft 480 kts 70°
2026-05-04 07:52 55.40377 6.14879 34953 ft 480 kts 70°
2026-05-04 07:54 55.49155 6.59194 34943 ft 482 kts 70°
2026-05-04 07:55 55.51339 6.70375 34944 ft 483 kts 71°
2026-05-04 07:55 55.53508 6.81544 34940 ft 483 kts 71°
2026-05-04 07:56 55.55656 6.92676 34933 ft 483 kts 71°
2026-05-04 07:56 55.57818 7.03941 34946 ft 484 kts 71°
2026-05-04 07:57 55.59950 7.15112 34938 ft 483 kts 71°
2026-05-04 07:57 55.62091 7.26400 34935 ft 485 kts 71°
2026-05-04 07:58 55.63151 7.32012 34807 ft 487 kts 71°
2026-05-04 07:58 55.64214 7.37659 34583 ft 485 kts 71°
2026-05-04 07:58 55.65279 7.43333 34360 ft 482 kts 71°
2026-05-04 07:58 55.66331 7.48955 34158 ft 483 kts 71°
2026-05-04 07:59 55.67388 7.54620 33959 ft 485 kts 71°
2026-05-04 07:59 55.68426 7.60201 33749 ft 485 kts 71°
2026-05-04 07:59 55.69475 7.65858 33515 ft 485 kts 72°
2026-05-04 07:59 55.70532 7.71575 33285 ft 486 kts 72°
2026-05-04 08:00 55.71578 7.77251 33056 ft 487 kts 72°
2026-05-04 08:00 55.72623 7.82940 32830 ft 487 kts 72°
2026-05-04 08:00 55.73666 7.88631 32603 ft 488 kts 72°
2026-05-04 08:02 55.80734 8.27959 30417 ft 465 kts 74°
2026-05-04 08:02 55.81610 8.33490 29938 ft 469 kts 75°
2026-05-04 08:02 55.82456 8.39045 29371 ft 468 kts 75°
2026-05-04 08:03 55.83287 8.44590 28849 ft 465 kts 75°
2026-05-04 08:03 55.84111 8.50121 28306 ft 462 kts 75°
2026-05-04 08:03 55.84928 8.55595 27784 ft 458 kts 75°
2026-05-04 08:03 55.85741 8.61028 27243 ft 455 kts 75°
2026-05-04 08:04 55.86555 8.66454 26706 ft 452 kts 76°
2026-05-04 08:04 55.87363 8.71841 26164 ft 449 kts 75°
2026-05-04 08:04 55.88162 8.77156 25627 ft 446 kts 76°
2026-05-04 08:04 55.88961 8.82479 25103 ft 442 kts 76°
2026-05-04 08:05 55.89742 8.87691 24578 ft 439 kts 75°
2026-05-04 08:05 55.90529 8.92960 24037 ft 437 kts 75°
2026-05-04 08:05 55.91301 8.98138 23481 ft 434 kts 75°
2026-05-04 08:05 55.92068 9.03296 22959 ft 430 kts 75°
2026-05-04 08:06 55.92834 9.08460 22432 ft 427 kts 75°
2026-05-04 08:06 55.93578 9.13497 21911 ft 424 kts 75°
2026-05-04 08:06 55.94326 9.18570 21371 ft 421 kts 75°
2026-05-04 08:06 55.95058 9.23558 20847 ft 419 kts 75°
2026-05-04 08:08 55.98852 9.49614 18313 ft 398 kts 75°